Regional Weather Roundup
Issued by NWS

Home | Current Version | Previous Version | Text Only | Print | Product List | Glossary Off
Versions: 1 2 3 4 5 6 7 8 9 10 11 12 13 14 15 16 17 18 19 20 21 22 23 24 25 26 27 28 29 30 31 32 33 34 35 36 37 38 39 40 41 42 43 44 45 46 47 48 49 50

000
ASUS43 KBIS 202110
RWRND

NORTH DAKOTA REGIONAL WEATHER ROUNDUP
NATIONAL WEATHER SERVICE BISMARCK ND
400 PM CDT SUN APR 20 2014

NOTE: "FAIR" INDICATES FEW OR NO CLOUDS BELOW 12,000 FEET WITH NO
SIGNIFICANT WEATHER AND/OR OBSTRUCTIONS TO VISIBILITY.


NDZ001>003-009>011-017-202200-
NORTHWEST NORTH DAKOTA

CITY           SKY/WX    TMP DP  RH WIND       PRES   REMARKS
WILLISTON      MOSUNNY   66  25  21 W20G36    29.90R
MINOT          PTSUNNY   72  34  24 SW24G38   29.81R
MINOT AFB      PTSUNNY   71  36  28 SW22G37   29.80R
$$

NDZ018>021-031>035-040>046-202200-
SOUTHWEST NORTH DAKOTA

CITY           SKY/WX    TMP DP  RH WIND       PRES   REMARKS
BISMARCK       CLOUDY    75  32  20 SW15      29.86F
DICKINSON      MOSUNNY   68  26  20 NW30G37   29.92R
GARRISON         N/A     73  37  27 W24G31    29.84R
HETTINGER ARPT CLOUDY    67  28  23 NW21G28   29.95R
$$

NDZ004>008-012>016-024-026-027-054-202200-
NORTHEAST NORTH DAKOTA

CITY           SKY/WX    TMP DP  RH WIND       PRES   REMARKS
GRAND FORKS    PTSUNNY   71  37  28 S13       29.91F
GRND FRKS AFB  PTSUNNY   71  38  29 S16       29.91F
DEVILS LAKE    PTSUNNY   70  37  30 SE12      29.86F
$$

NDZ022-023-025-028>030-036>039-047>053-202200-
SOUTHEAST NORTH DAKOTA

CITY           SKY/WX    TMP DP  RH WIND       PRES   REMARKS
FARGO          SUNNY     74  29  19 SW10      29.92F
JAMESTOWN      MOSUNNY   73  31  21 S8G28     29.88F
$$




USA.gov is the U.S. government's official web portal to all federal, state and local government web resources and services.